Theta_e
312 317 323 326 330 327 331 332 325 325 324 323 321 321 321 320 322 326 339 340 342 341 338 340 340 341 338 339 340 339 334 334 337 337 337 337 337 335 333 328 329 328 332 332 331 329 330 324 327
310 315 324 324 329 327 325 324 325 323 324 320 321 322 321 321 332 337 339 340 342 341 338 342 339 340 340 340 340 340 335 336 337 336 337 337 336 335 334 330 327 332 329 329 328 327 326 324 325
310 312 322 326 325 329 326 323 324 322 320 321 323 322 322 322 334 339 338 341 343 341 336 339 339 339 340 340 340 340 336 337 337 336 336 336 334 332 332 329 328 329 327 327 329 328 325 324 323
308 315 319 324 326 322 321 319 319 319 321 321 321 325 324 333 336 340 337 340 344 343 337 336 337 339 340 340 340 339 337 337 336 335 334 333 331 330 331 331 328 327 327 325 327 327 326 326 321
307 313 319 319 319 318 317 317 316 317 320 323 322 324 327 335 338 339 338 340 344 344 342 339 335 339 339 340 339 339 338 337 334 334 332 331 330 330 331 329 327 328 326 326 326 325 324 320 315
305 307 313 320 318 316 314 313 315 315 315 322 322 322 326 336 338 340 340 341 342 344 343 342 338 338 339 338 338 338 338 337 335 333 332 332 330 330 329 328 327 326 326 326 325 326 325 317 310
306 308 312 311 312 312 312 310 312 313 312 317 322 324 333 336 338 339 341 341 343 344 343 342 340 338 339 338 337 338 338 337 334 334 334 333 331 330 329 327 328 326 326 327 326 325 320 316 312
307 310 311 309 311 312 310 307 309 310 312 314 320 323 329 335 338 339 339 340 343 342 340 341 341 339 339 338 337 337 337 336 334 334 335 334 332 329 329 327 328 326 324 325 324 325 323 315 312
303 308 311 311 310 305 304 305 307 307 310 315 320 325 329 330 336 336 338 339 339 339 339 340 341 339 338 338 337 337 337 336 334 335 334 334 333 329 328 327 327 326 326 324 320 319 317 314 312
303 304 306 304 302 302 302 302 302 303 302 314 319 315 315 315 315 322 330 336 338 338 341 341 341 339 338 338 337 337 337 335 335 335 334 334 333 330 326 327 327 327 324 322 320 317 315 313 313
301 303 302 302 301 302 302 301 301 301 302 303 301 302 309 313 312 313 315 321 334 337 338 340 342 340 338 338 337 336 336 335 334 334 335 335 333 329 325 325 327 327 324 323 323 318 315 313 313
300 301 302 302 302 302 302 301 301 300 301 300 300 301 301 311 310 311 312 313 322 332 331 335 339 339 338 336 335 336 335 335 334 334 334 335 332 329 325 326 325 324 324 324 322 317 315 312 318
301 301 302 302 302 301 302 302 299 300 300 299 300 302 301 305 309 309 308 309 317 324 326 333 334 337 338 337 336 335 335 334 333 333 334 334 333 330 328 327 326 324 323 323 317 313 311 311 315
301 303 302 302 303 303 303 302 302 301 301 300 301 302 302 300 304 304 306 309 313 320 323 327 333 333 336 337 336 335 334 333 332 333 333 334 333 331 329 328 327 325 322 320 315 313 310 315 317
302 302 301 302 302 303 303 304 303 302 302 301 301 301 302 301 301 302 305 310 311 316 315 319 326 332 332 335 333 333 330 330 329 331 333 333 332 331 329 328 327 325 323 321 318 316 316 317 318
302 302 303 303 303 304 303 305 304 302 301 301 301 301 301 301 301 303 305 307 307 309 312 314 319 329 332 333 333 331 329 332 331 330 333 333 332 331 329 329 327 326 325 322 319 317 316 318 318
299 297 302 303 303 303 303 304 302 301 301 301 300 299 300 301 300 301 302 303 302 305 310 311 314 322 328 333 333 332 331 333 333 333 333 333 332 331 330 328 326 325 324 323 319 318 315 318 318
294 298 303 303 303 304 304 304 304 303 302 301 300 299 298 299 300 301 302 302 301 302 302 307 312 318 327 331 332 332 333 332 332 333 333 333 332 331 330 328 326 324 323 321 319 316 315 317 319
302 302 302 302 302 304 304 304 303 302 303 304 302 301 301 298 300 301 301 301 301 302 304 311 319 325 327 329 332 332 331 331 331 332 333 333 332 331 329 327 325 324 322 320 318 316 315 318 320
305 305 305 304 304 304 305 305 305 304 304 303 303 302 301 300 300 300 302 302 302 302 302 303 307 321 326 327 329 330 328 331 331 330 332 333 332 331 329 327 325 324 322 320 318 316 317 318 321
304 305 305 305 305 305 305 306 305 304 304 303 303 303 300 300 300 300 301 302 302 302 302 302 306 323 325 326 328 330 329 331 331 331 331 332 331 329 329 328 326 324 323 321 318 316 316 320 321
306 304 306 308 308 309 305 305 304 303 303 303 303 302 302 301 301 300 300 301 302 302 302 306 318 320 324 327 328 329 330 330 329 330 330 330 331 330 330 329 326 324 323 321 319 317 317 319 321
306 304 305 306 306 307 306 308 301 302 302 300 299 299 297 298 299 299 299 301 301 304 315 317 318 318 318 324 328 328 330 329 329 329 329 330 330 330 329 328 326 323 322 322 321 317 317 319 321
302 302 302 304 307 305 300 303 298 301 299 298 298 298 299 299 299 297 299 300 308 311 312 313 314 314 316 319 324 329 328 328 328 328 328 328 327 328 328 326 324 326 323 321 320 319 317 319 320
301 297 296 302 300 299 300 304 299 298 298 298 298 298 298 297 299 296 301 303 305 307 308 310 312 313 315 316 322 324 328 328 328 327 327 327 326 326 326 325 324 325 324 323 321 320 319 318 320
301 303 304 304 305 304 302 304 301 296 297 296 297 299 301 300 300 300 302 302 303 304 305 307 308 310 310 312 318 322 324 327 328 327 327 327 327 326 326 325 325 324 322 323 323 323 321 319 320
299 302 301 304 296 302 296 297 302 295 296 295 296 299 301 300 300 299 300 300 300 300 302 303 303 304 305 305 308 315 317 316 320 319 318 319 321 322 324 323 324 324 323 323 324 324 323 322 321
297 300 300 300 302 301 301 298 295 294 295 294 295 296 298 299 299 298 298 298 298 298 299 299 300 300 300 302 304 308 307 308 310 310 314 315 315 315 314 317 320 322 322 323 323 324 324 323 323
299 299 299 305 303 302 303 298 295 294 295 294 293 294 294 295 295 297 296 296 296 296 296 296 297 297 297 298 298 302 304 305 306 307 306 306 307 307 309 311 313 314 314 314 314 315 317 318 315
299 298 298 302 300 298 301 298 294 293 293 293 292 291 292 292 292 293 293 293 292 293 293 294 294 294 294 295 295 296 298 300 301 300 299 301 301 302 303 304 305 306 306 306 307 308 305 306 305
Wind_Speed
15 14 14 5 2 1 4 6 9 8 6 2 6 7 2 3 1 3 7 4 9 26 32 28 26 26 27 28 27 24 24 22 20 19 18 20 19 18 18 19 19 15 15 16 16 16 17 16 17
18 15 4 1 3 4 5 9 12 11 10 6 4 5 2 4 5 5 4 9 11 27 31 30 26 25 26 28 27 25 25 24 21 21 19 20 20 19 18 16 17 18 16 14 15 15 15 14 17
17 11 2 3 4 10 5 8 16 12 4 7 6 3 5 2 5 9 8 9 14 26 29 28 27 25 26 27 28 26 27 25 22 22 20 19 19 19 18 17 18 18 14 13 14 14 15 14 16
9 7 3 3 15 5 8 9 9 8 3 5 6 4 2 4 11 15 13 12 18 26 28 28 27 26 25 26 28 28 27 25 23 21 21 20 19 19 19 21 21 17 16 13 14 13 13 12 13
5 2 3 5 11 5 8 10 7 11 5 6 5 5 6 4 16 18 17 18 21 25 25 28 28 26 25 25 28 29 27 26 25 22 22 21 21 21 22 21 19 19 16 16 15 14 13 12 12
3 2 3 8 13 8 8 13 17 13 8 8 4 4 4 13 19 14 14 17 18 25 24 26 26 27 26 27 27 28 28 27 26 23 22 22 21 21 21 21 19 17 16 17 16 15 13 12 12
2 1 4 7 8 11 7 7 6 11 8 10 4 6 4 5 13 14 14 16 22 23 23 28 28 27 27 26 27 27 28 28 25 24 23 22 21 21 20 20 20 17 17 18 17 14 13 11 12
1 0 4 3 2 8 5 15 8 11 10 8 7 7 6 5 10 12 14 15 22 21 18 26 29 28 28 27 26 27 27 27 26 25 24 23 21 20 21 21 22 19 15 18 20 18 14 13 11
3 2 3 4 3 7 14 11 7 12 8 10 10 7 8 8 11 10 12 14 15 15 20 26 30 31 31 29 28 27 27 26 26 25 25 24 23 21 21 21 23 19 17 14 16 17 16 14 13
2 3 4 4 8 12 14 11 10 10 18 6 6 14 21 17 14 9 4 10 14 16 19 26 32 35 33 31 30 29 28 27 26 26 26 26 25 22 22 22 22 22 19 14 14 14 13 12 12
4 4 6 10 17 12 13 17 6 9 6 6 11 17 13 9 13 10 10 10 9 13 16 22 28 34 34 31 34 32 30 29 27 26 28 28 26 24 22 22 22 21 19 18 15 15 14 12 11
5 9 10 9 13 18 16 12 13 12 15 11 16 14 10 6 7 10 11 14 9 3 10 19 25 28 34 33 35 33 34 32 30 29 29 30 29 26 26 24 23 21 20 19 16 16 14 14 12
6 6 9 11 15 13 16 13 13 24 14 12 18 17 12 6 7 12 16 19 14 3 5 13 19 27 30 35 36 36 35 33 32 31 31 33 31 30 29 26 25 22 19 19 17 16 15 15 12
5 9 14 11 16 14 19 22 17 21 20 19 14 22 18 8 9 17 16 20 16 9 6 6 14 17 24 34 36 38 36 34 32 32 32 35 33 32 31 28 28 24 19 20 18 16 16 14 13
9 16 16 17 18 13 16 18 26 28 21 22 22 18 23 19 13 16 19 19 16 15 13 9 9 15 17 29 26 34 33 32 32 35 33 35 35 35 32 29 28 26 21 19 20 18 16 16 16
5 4 7 3 4 7 8 19 18 15 12 18 19 19 19 24 12 19 21 22 18 20 21 16 13 11 16 23 33 35 32 31 33 33 34 36 35 35 33 29 27 25 24 23 22 22 20 20 18
3 4 9 13 8 8 8 20 6 8 6 14 10 13 17 16 15 21 29 25 25 23 20 19 16 13 15 18 31 31 36 38 32 33 35 36 36 35 35 30 28 25 24 26 25 23 23 22 21
5 8 9 14 7 8 15 20 17 14 16 17 11 9 8 12 17 21 27 26 28 28 27 23 22 19 16 19 27 33 37 37 34 31 36 37 38 35 34 32 30 28 27 27 26 26 24 22 20
16 18 22 26 22 20 21 25 24 17 14 18 18 16 13 9 8 13 14 15 17 16 14 16 14 15 17 21 23 26 27 28 31 34 33 38 39 34 33 31 29 29 29 31 29 27 25 23 22
16 20 24 21 19 13 18 24 21 20 16 20 19 17 17 8 8 9 19 19 19 14 16 16 17 16 16 22 26 23 28 30 38 32 31 35 38 37 32 33 32 32 32 31 30 29 26 27 24
18 15 18 22 22 18 22 24 24 20 21 20 20 18 11 9 8 8 12 23 24 19 20 21 18 16 14 19 22 24 24 24 25 30 33 33 34 35 35 35 35 32 34 34 33 32 32 25 29
14 8 12 14 13 6 4 10 2 8 8 7 12 11 15 15 13 8 10 13 21 20 20 18 15 19 14 15 24 26 26 21 21 26 32 36 33 34 34 35 34 34 34 35 34 34 34 28 24
11 18 15 20 17 13 8 5 5 7 9 15 12 10 9 10 11 10 10 18 19 13 15 13 15 16 16 14 23 26 20 24 25 28 31 33 30 29 33 34 31 33 36 38 35 34 37 35 27
19 12 20 11 6 4 3 6 4 5 11 17 19 16 10 8 10 10 19 16 15 11 8 6 8 13 16 17 19 23 30 19 22 28 28 29 32 35 35 33 33 37 35 36 38 35 36 37 34
12 7 4 4 2 5 2 2 3 15 17 14 17 21 19 9 10 8 9 8 11 7 1 3 7 10 12 12 16 14 28 27 29 27 25 24 23 30 35 37 33 37 40 36 37 38 36 37 37
11 3 3 5 4 8 4 3 1 18 14 16 17 18 14 4 6 7 8 10 11 8 3 2 6 7 6 5 7 11 7 19 24 22 21 19 23 24 25 33 39 39 37 38 38 38 37 36 40
8 7 14 4 4 2 2 5 1 21 18 17 19 20 3 9 10 9 11 14 11 8 5 2 3 4 4 7 9 12 10 11 13 15 13 11 9 12 15 17 27 36 39 38 38 39 39 39 38
5 8 5 3 4 4 3 4 9 21 22 18 17 15 12 10 11 10 11 12 10 12 10 7 5 7 8 12 13 15 12 13 11 8 9 3 3 7 8 8 4 16 21 27 34 35 34 35 34
11 8 5 4 5 5 6 1 11 18 17 15 13 12 11 13 12 11 9 11 12 14 13 13 12 11 13 17 19 19 17 15 14 14 11 8 6 3 2 1 3 4 6 7 8 13 20 23 21
10 10 8 3 5 3 5 2 15 15 13 12 11 11 12 13 12 11 9 12 14 13 13 17 15 16 16 19 23 26 24 22 22 21 19 16 16 14 14 12 11 10 8 8 9 10 12 14 13
Wind_Direction
337 331 324 321 44 174 216 230 239 258 292 190 144 109 205 235 104 222 147 108 168 172 175 176 179 174 171 167 170 168 164 159 152 147 146 148 140 135 131 135 141 138 133 123 121 120 113 120 111
337 342 331 346 163 237 262 203 254 239 240 145 84 92 86 276 120 137 128 130 167 167 176 174 178 180 173 169 170 172 167 163 160 152 153 147 146 142 140 141 141 128 128 131 128 126 129 125 126
339 305 67 179 203 221 222 198 224 262 245 168 141 160 164 176 117 140 156 142 165 168 174 177 176 183 181 175 173 175 171 167 166 160 156 153 152 152 152 149 138 145 139 133 132 131 137 136 133
337 356 334 233 240 247 229 283 281 297 321 215 162 145 81 20 154 154 150 148 168 170 175 178 177 182 185 182 176 176 173 170 168 169 160 159 158 158 153 155 149 141 147 142 141 134 133 136 139
339 72 249 252 251 263 291 277 279 285 279 219 161 201 139 86 130 145 147 147 165 170 174 179 179 187 186 188 180 176 176 175 172 172 165 162 163 164 154 154 150 150 147 146 145 137 133 136 141
352 115 240 244 258 283 268 250 264 263 266 269 156 174 147 124 124 131 137 148 170 173 176 180 184 188 192 188 186 181 177 178 176 174 172 168 166 168 164 166 156 155 154 149 152 147 141 138 137
132 34 244 293 292 289 300 321 277 291 288 276 184 154 128 97 135 147 140 155 172 175 179 183 185 192 193 193 189 188 181 180 179 177 178 175 173 169 171 177 165 165 158 153 158 161 152 151 144
46 35 280 280 34 288 353 337 4 24 301 283 195 189 166 184 132 140 155 150 166 172 191 192 187 192 192 193 193 191 188 184 179 180 181 178 177 174 173 174 169 178 171 164 167 166 165 159 155
34 314 300 290 319 327 338 352 330 317 331 319 354 31 77 101 130 140 142 157 167 182 195 196 189 196 195 194 195 194 192 188 185 181 185 181 179 177 176 180 177 179 178 181 172 174 175 167 163
144 209 238 260 321 319 321 324 326 344 331 305 47 21 17 30 40 58 341 180 180 193 198 200 195 196 195 194 192 194 191 189 188 186 185 185 183 181 178 183 185 178 178 185 183 181 177 174 169
255 240 284 293 306 311 316 310 318 318 293 305 326 321 334 344 355 17 3 3 203 206 212 210 202 199 199 193 194 194 194 190 192 190 189 188 185 181 178 181 189 183 183 183 197 191 187 182 176
307 285 292 306 306 304 301 294 290 270 264 279 302 292 304 327 328 331 341 327 326 216 248 231 217 207 204 199 198 195 195 195 193 192 193 188 187 183 182 183 188 190 194 199 203 201 196 194 196
286 288 293 297 295 288 296 293 275 282 287 281 288 290 275 262 284 301 308 305 301 317 305 254 231 216 207 202 196 200 200 197 196 194 194 193 193 188 186 187 191 194 203 203 204 203 201 195 211
298 312 298 290 287 281 278 277 273 271 287 277 272 284 284 243 224 275 281 281 291 290 308 309 256 240 219 206 194 194 198 203 203 200 196 196 193 192 190 191 195 201 206 204 196 197 198 203 214
309 305 296 276 261 261 258 270 255 247 254 270 274 267 276 271 248 238 246 259 276 284 292 283 285 257 240 221 203 190 195 203 205 204 203 201 197 195 195 197 199 203 204 204 201 198 202 208 216
267 253 294 209 256 241 138 251 260 278 243 253 267 266 259 270 247 253 251 250 263 272 274 281 276 276 255 227 199 192 190 206 203 200 202 202 199 195 196 199 202 199 200 198 200 201 205 209 211
289 254 259 295 236 271 211 273 312 292 270 270 270 279 250 252 258 242 257 252 257 263 260 269 266 265 259 237 206 195 193 200 199 199 201 199 201 196 201 195 194 193 196 197 204 210 210 210 209
270 278 260 271 276 286 283 275 272 269 278 275 271 268 253 246 245 242 247 257 253 256 261 266 269 256 247 230 211 199 193 198 199 201 202 199 198 202 200 199 201 204 205 205 206 209 211 216 214
270 267 267 270 274 277 271 268 272 269 256 259 262 267 269 241 231 227 240 257 257 257 266 254 269 234 235 223 213 205 196 196 200 204 204 204 202 199 199 199 200 205 207 209 209 209 211 215 218
271 275 275 278 276 265 276 270 264 260 255 247 247 243 249 242 235 217 227 242 249 257 264 273 274 256 237 231 228 209 191 206 208 208 207 208 205 202 201 203 203 204 207 210 211 209 212 216 209
280 267 274 274 292 274 268 273 264 258 250 250 254 250 229 224 236 225 217 222 237 247 257 263 269 251 241 242 225 205 205 199 187 196 208 212 212 210 213 208 208 207 211 212 212 213 213 210 212
288 254 292 288 296 304 124 294 81 261 237 254 257 262 240 239 238 211 222 207 222 238 252 247 239 242 254 244 220 218 202 199 204 192 205 211 208 205 208 213 212 212 215 215 220 218 218 212 211
271 292 280 275 274 289 243 256 283 340 18 346 332 328 332 289 242 205 209 211 216 218 203 210 227 243 258 263 238 223 207 193 185 193 202 211 215 208 216 218 217 221 220 224 222 221 220 219 213
290 298 286 272 250 245 302 178 314 23 337 327 329 325 315 304 310 240 202 195 165 181 205 226 244 258 264 267 248 224 211 183 180 194 194 198 210 218 219 229 232 236 226 224 225 229 224 223 221
328 338 310 1 343 223 285 178 278 7 351 331 319 310 301 296 297 236 151 127 125 103 162 268 256 247 257 256 252 251 227 202 189 192 193 189 194 217 232 232 224 224 227 224 230 231 228 227 225
314 287 287 313 312 286 180 251 196 12 342 334 323 305 283 305 9 109 100 104 99 82 56 300 254 231 240 201 178 208 211 174 186 185 196 200 209 216 227 234 231 232 227 230 234 232 229 222 225
328 316 296 260 247 260 202 343 76 352 346 339 344 345 104 102 82 70 77 74 79 82 78 100 155 144 148 127 130 141 146 155 176 154 167 173 197 222 235 257 238 227 228 225 228 230 224 224 227
289 297 331 292 312 296 5 60 332 344 343 347 343 354 2 61 60 62 61 67 75 81 91 101 118 113 117 114 118 120 120 122 128 125 120 148 227 252 257 249 222 222 223 224 235 224 221 217 218
2 2 348 287 25 326 326 62 358 346 336 337 339 357 10 45 42 54 54 55 66 74 80 86 91 103 108 109 112 113 108 102 98 92 93 99 100 113 113 102 230 238 245 249 232 201 202 195 198
12 0 11 353 3 318 287 344 18 344 341 342 353 10 23 40 43 44 43 48 51 52 62 68 73 80 91 102 106 104 105 102 97 94 94 97 95 92 87 89 96 93 97 110 116 115 103 118 99